User: anonymous   Login
Location: Cherry Springs State Park
(41.6616°N, 77.8240°W)
Time: 13:45:44
(UTC-05:00)
Language:

Cosmos 1437 - Orbit

View from above orbital plane
View from above orbital plane
View from above satellite
View from above satellite

Ground track
Ground track

The orbit data is extracted from the following two-line orbital elements,

1 13770U 83003A   15060.53567782  .00018194  00000-0  50196-3 0  9994
2 13770 081.1614 088.6740 0007578 317.4825 156.3252 15.36944515757018
Epoch (UTC): 01 March 2015 12:51:22
Eccentricity: 0.0007578
inclination: 81.1614°
perigee height: 450 km
apogee height: 460 km
right ascension of ascending node: 88.6740°
argument of perigee: 317.4825°
revolutions per day: 15.36944515
mean anomaly at epoch: 156.3252°
orbit number at epoch: 75701

The dashed part of the orbit path shows where the satellite is in the earth's shadow,  

DLR